BREEZE-M DEB (TANK)

基本信息
目录编号:
44459
目录名称:
BREEZE-M DEB (TANK)
国际标识:
2019-048C
轨道中心:
EARTH
物体状态:
已陨落(2024-12-21)
发射日期:
2019-08-05 UTC
轨道信息
数据来源: 国际轨道数据
星历时间: 2024-12-21T10:09:50+0800
半长轴: 6537.676km
偏心率: 0.0073696
轨道倾角: 47.706°
近地点辐角: 265.764°
升交点赤经: 254.060°
平近点角: 144.506°
近地点: 111.36km
远地点: 207.722km
周期: 87.679分钟
每日圈数: 16.423575
详细信息
发射场:
TTMTR
轨道高度:
LEO
数据来源:
AOE Integration Group
参考系:
TEME
时间系统:
UTC
历元类型:
SGP4
2D轨道图
3D轨道图
轨道高度分析图
轨道倾角分析图
轨道综合分析图
查看轨道综合分析图